Weather History for KAKR - January, 2014

Change the Weather History Date:

Friday, January 31, 2014

  Actual Average (KCAK) Record (KCAK)
Temperature  
Mean Temperature 32 °F 27 °F  
Max Temperature 34 °F 34 °F 62 °F (2002)
Min Temperature 30 °F 19 °F -5 °F (1948)
Degree Days  
Heating Degree Days 33 38  
Month to date heating degree days 1206  
Since 1 July heating degree days 3536  
Cooling Degree Days 0 0  
Month to date cooling degree days 0  
Year to date cooling degree days 0  
Moisture  
Dew Point 18 °F    
Average Humidity 61    
Maximum Humidity 88    
Minimum Humidity 40    
Precipitation  
Precipitation 0.00 in 0.08 in 1.48 in (1982)
Month to date precipitation 2.61  
Year to date precipitation 2.61  
Snow  
Snow 0.00 in 0.40 in - ()
Month to date snowfall 12.4  
Since 1 July snowfall 26.0  
Snow Depth -    
Sea Level Pressure  
Sea Level Pressure 30.10 in    
Wind  
Wind Speed 8 mph (SW)    
Max Wind Speed 16 mph    
Max Gust Speed 22 mph    
Visibility 9 miles    
Events Snow    
T = Trace of Precipitation, MM = Missing Value Source: NWS Daily Summary

Daily Weather History Graph

Daily Weather History Graph

Search for Another Location

Airport or City:

Trip Planner

Search our weather history database for the weather conditions in past years. The results will help you decide how hot, cold, wet, or windy it might be!

Date:

Astronomy

Jan. 31, 2014 Rise Set
Actual Time 7:37 AM EST 5:41 PM EST
Civil Twilight 7:08 AM EST 6:10 PM EST
Nautical Twilight 6:35 AM EST 6:43 PM EST
Astronomical Twilight 6:03 AM EST 7:16 PM EST
Moon 7:45 AM EST (1/31) 7:05 PM EST (1/31)
Length of Visible Light 11h 02m
Length of Day
10h 04m
New Moon, 1% of the Moon is Illuminated
Jan 31
New Moon
Feb 6
First Quarter
Feb 14
Full
Feb 22
Last Quarter
Mar 1
New

Hourly Weather History & Observations

Time (EST) Temp. Windchill Dew Point Humidity Pressure Visibility Wind Dir Wind Speed Gust Speed Precip Events Conditions
12:54 AM 30.9 °F 22.2 °F 9.0 °F 40% 29.97 in 10.0 mi SW 10.4 mph - N/A   Overcast
1:54 AM 30.9 °F 22.2 °F 10.0 °F 42% 29.98 in 10.0 mi SW 10.4 mph - N/A   Overcast
2:54 AM 30.9 °F 23.5 °F 10.9 °F 43% 29.99 in 10.0 mi SSW 8.1 mph - N/A   Overcast
3:54 AM 30.9 °F 21.7 °F 10.9 °F 43% 30.01 in 10.0 mi SW 11.5 mph - N/A   Overcast
4:54 AM 30.9 °F 22.2 °F 12.9 °F 47% 30.01 in 10.0 mi SW 10.4 mph - N/A   Overcast
5:54 AM 30.9 °F 22.2 °F 12.0 °F 46% 30.04 in 10.0 mi SSW 10.4 mph - N/A   Overcast
6:54 AM 30.9 °F 22.2 °F 12.9 °F 47% 30.05 in 10.0 mi SW 10.4 mph - N/A   Overcast
7:54 AM 30.9 °F 22.8 °F 12.9 °F 47% 30.06 in 10.0 mi SW 9.2 mph - N/A   Overcast
8:54 AM 32.0 °F 24.2 °F 12.9 °F 45% 30.08 in 10.0 mi SW 9.2 mph - N/A   Overcast
9:54 AM 32.0 °F 24.8 °F 12.9 °F 45% 30.10 in 10.0 mi SW 8.1 mph - N/A   Mostly Cloudy
10:54 AM 33.1 °F 25.5 °F 14.0 °F 46% 30.12 in 10.0 mi SW 9.2 mph - N/A   Overcast
11:54 AM 33.1 °F 24.4 °F 14.0 °F 46% 30.12 in 10.0 mi SW 11.5 mph - N/A   Overcast
12:54 PM 33.1 °F 24.4 °F 17.1 °F 52% 30.09 in 10.0 mi SW 11.5 mph - N/A   Overcast
1:54 PM 34.0 °F 23.8 °F 17.1 °F 50% 30.09 in 10.0 mi SW 16.1 mph 21.9 mph N/A   Overcast
2:54 PM 33.1 °F 24.9 °F 19.0 °F 56% 30.12 in 10.0 mi SW 10.4 mph - N/A   Overcast
3:54 PM 33.1 °F 26.9 °F 21.0 °F 61% 30.12 in 8.0 mi WSW 6.9 mph - 0.00 in   Overcast
4:54 PM 32.0 °F 26.4 °F 21.9 °F 66% 30.16 in 9.0 mi SW 5.8 mph - 0.00 in   Overcast
5:54 PM 30.9 °F 26.2 °F 25.0 °F 79% 30.16 in 8.0 mi SSW 4.6 mph - 0.00 in   Overcast
6:54 PM 30.0 °F 23.2 °F 26.1 °F 85% 30.17 in 9.0 mi South 6.9 mph - N/A   Overcast
7:54 PM 30.0 °F 26.5 °F 26.1 °F 85% 30.18 in 5.0 mi South 3.5 mph - 0.00 in Snow Light Snow
8:54 PM 30.0 °F - 26.1 °F 85% 30.18 in 7.0 mi Calm Calm - 0.00 in   Overcast
9:04 PM 30.0 °F - 26.1 °F 85% 30.14 in 7.0 mi Calm Calm - N/A   Overcast
9:31 PM 30.0 °F - 26.1 °F 85% 30.14 in 6.0 mi Calm Calm - N/A   Overcast
9:54 PM 30.0 °F - 27.0 °F 88% 30.16 in 6.0 mi Calm Calm - N/A   Overcast
10:54 PM 30.0 °F - 27.0 °F 88% 30.15 in 5.0 mi Calm Calm - N/A   Mostly Cloudy
11:54 PM 30.0 °F - 27.0 °F 88% 30.14 in 5.0 mi Calm Calm - N/A   Overcast